Location: Borowce
(50.8255°N, 19.6209°E)
Time: 07:42:56
(UTC+00:00)

Cosmos 2333 Rocket - Pass Details

Date: 19 May 2025
Orbit: 840 x 862 km, 70.8° (Epoch: 16 June)

Event Time Altitude Azimuth Distance (km) Brightness Sun altitude
Rises 20:20:20 0° 330° (NNW) 3,445 7.4 -13.0°
Reaches altitude 10° 20:23:21 10° 345° (NNW) 2,502 5.9 -13.3°
Maximum altitude 20:27:52 23° 37° (NE) 1,740 4.1 -13.6°
Drops below altitude 10° 20:32:21 10° 89° (E) 2,482 4.4 -14.0°
Enters shadow 20:33:55 - 98° (E) 2,952 4.7 -14.1°
